STARLINK-35284

Last updated on Mon Oct 20 2025 00:02:06 GMT+0000 (Coordinated Universal Time)

1 65741U 25216H 25292.25002315 .00097480 00000+0 24247-2 0 9995 2 65741 53.1588 272.3004 0001578 88.3054 292.7624 15.39509321 4927
UTC large
Height (km)
Speed (km/s)
/
Latitude / Longitude
Inclination (degrees)
Orbital Period (minutes)
Azimuth
Elevation
Range (km)
Doppler Factor

Next 0 passes for location: London (51.5072 / 0.1276)

Sorry there are no passes over London.